This is the latest recevied weather packets stored in our database for station/object EA3BNF-1. If no packets are shown the sender has not sent any weather packets the latest 10 day(s).
| Time | Temp. | Humidity | Pressure | Rain* | Wind** | Luminosity | Snow |
|---|---|---|---|---|---|---|---|
| 1777538560 | 21.11° C | 62% | 1016.5 hPa | - | - | - | - |
| 1777537904 | 21.11° C | 61% | 1016.3 hPa | - | - | - | - |
| 1777537248 | 21.11° C | 59% | 1016.3 hPa | - | - | - | - |
| 1777536593 | 21.11° C | 57% | 1016.2 hPa | - | - | - | - |
| 1777535937 | 20.56° C | 58% | 1016.2 hPa | - | - | - | - |
| 1777535281 | 20.56° C | 57% | 1016 hPa | - | - | - | - |
| 1777534626 | 20.56° C | 57% | 1015.8 hPa | - | - | - | - |
| 1777533970 | 20° C | 57% | 1015.9 hPa | - | - | - | - |
| 1777533315 | 20° C | 57% | 1015.8 hPa | - | - | - | - |
| 1777532659 | 18.89° C | 60% | 1015.9 hPa | - | - | - | - |
| 1777532003 | 18.33° C | 62% | 1015.7 hPa | - | - | - | - |
| 1777531348 | 17.78° C | 62% | 1015.7 hPa | - | - | - | - |
| 1777530693 | 17.78° C | 64% | 1015.7 hPa | - | - | - | - |
| 1777530036 | 17.22° C | 65% | 1015.5 hPa | - | - | - | - |
| 1777529381 | 18.33° C | 65% | 1015.5 hPa | - | - | - | - |
| 1777528725 | 18.33° C | 62% | 1015.1 hPa | - | - | - | - |
| 1777528069 | 17.78° C | 63% | 1015.1 hPa | - | - | - | - |
| 1777527413 | 17.78° C | 64% | 1015.1 hPa | - | - | - | - |
| 1777526757 | 17.78° C | 64% | 1015.1 hPa | - | - | - | - |
| 1777526102 | 17.22° C | 65% | 1014.9 hPa | - | - | - | - |
| 1777525446 | 16.67° C | 68% | 1015 hPa | - | - | - | - |
| 1777524790 | 16.67° C | 70% | 1015.1 hPa | - | - | - | - |
| 1777524135 | 16.67° C | 70% | 1015.2 hPa | - | - | - | - |
| 1777523479 | 16.67° C | 70% | 1014.9 hPa | - | - | - | - |
| 1777522824 | 16.67° C | 69% | 1014.8 hPa | - | - | - | - |
* Rain since midnight (hover to see other rain measurements)
** Current wind speed in m/s (hover to see current wind gust speed)